Regional Weather Roundup
Issued by NWS Charleston, WV

Home | Current Version | Previous Version | Graphics & Text | Print | Product List | Glossary On
Versions: 1 2 3 4 5 6 7 8 9 10 11 12 13 14 15 16 17 18 19 20 21 22 23 24 25 26 27 28 29 30 31 32 33 34 35 36 37 38 39 40 41 42 43 44 45 46 47 48 49 50
000
ASUS41 KRLX 270610
RWRRLX
West Virginia Regional Weather Roundup
National Weather Service Charleston WV
200 AM EDT THU APR 27 2017

Note: "fair" indicates few or no clouds below 12,000 feet with no
significant weather and/or obstructions to visibility.

WVZ003-270700-
Northern Panhandle of West Virginia

CITY           SKY/WX    TMP DP  RH WIND       PRES   REMARKS
WHEELING       CLEAR     64  53  67 SE7       29.68F
$$

WVZ009-270700-
Northwest West Virginia

CITY           SKY/WX    TMP DP  RH WIND       PRES   REMARKS
PARKERSBURG    CLEAR     64  53  67 S3        29.68F
$$

WVZ006-270700-
Western West Virginia

CITY           SKY/WX    TMP DP  RH WIND       PRES   REMARKS
HUNTINGTON     CLOUDY    63  54  72 CALM      29.65S
$$

WVZ015-270700-
West Central West Virginia

CITY           SKY/WX    TMP DP  RH WIND       PRES   REMARKS
CHARLESTON     CLEAR     60  55  83 CALM      29.68S
$$

WVZ022-031-270700-
North Central West Virginia

CITY           SKY/WX    TMP DP  RH WIND       PRES   REMARKS
CLARKSBURG     CLEAR     58  54  86 CALM      29.71S
MORGANTOWN     CLEAR     68  56  65 S8        29.72S
$$

WVZ025-035-042-045-270700-
Southern West Virginia

CITY           SKY/WX    TMP DP  RH WIND       PRES   REMARKS
BECKLEY        CLEAR     65  54  67 SE13      29.79F
LOGAN          NOT AVBL
BLUEFIELD      CLEAR     64  52  64 S10       29.82F
LEWISBURG      CLEAR     63  56  77 SE3       29.83F
$$

WVZ047-270700-
Northern Mountains of West Virginia

CITY           SKY/WX    TMP DP  RH WIND       PRES   REMARKS
ELKINS         CLEAR     51  49  92 CALM      29.78S
$$

WVZ052-270700-
Eastern Panhandle of West Virginia

CITY           SKY/WX    TMP DP  RH WIND       PRES   REMARKS
MARTINSBURG    CLEAR     57  54  89 N3        29.80F
PETERSBURG     CLEAR     56  56  98 CALM      29.79F
$$



USA.gov is the U.S. government's official web portal to all federal, state and local government web resources and services.